Sam Sing — PH2979 — position and weather

sailwx.info

Track history (hours):
 
Tides and Currents Weather Stations Pressure Air Temp Water Temp Dewpoint Dewpoint Depression Visibility Wind Speed Wind Dir Waves Ship Positions

Sam Sing

Last reported at 2014-Sep-15 11:30 UTC. Time now 2014-Sep-17 03:35 UTC.
Position N 37°30' E 025°10'.

Length 13 m.

Type: Sailing vessel. MMSI: 244020860.

Date/timePositionNaut miles runAvg speedWind from/ knotsBaromVisibWave heightAir tempDewpointWater temp
2014-Sep-15 11:30N 37°30' E 025°10'6 6.1
2014-Sep-15 10:33N 37°24' E 025°10'6 5.7
2014-Sep-15 09:32N 37°19' E 025°12'6 5.7
2014-Sep-15 08:33N 37°14' E 025°15'6 6.1
2014-Sep-15 07:33N 37°08' E 025°18'5 5.3
2014-Sep-15 06:33N 37°03' E 025°17'2 0.0
2014-Sep-13 13:27N 37°02' E 025°16'3 3.4
2014-Sep-13 12:33N 36°59' E 025°15'5 5.0
2014-Sep-13 11:33N 36°55' E 025°11'6 5.6
2014-Sep-13 10:32N 36°51' E 025°06'5 4.8
2014-Sep-13 09:33N 36°46' E 025°05'6 5.5
2014-Sep-13 08:32N 36°41' E 025°01'6 0.3
2014-Sep-12 15:21N 36°37' E 024°57'  
2014-Sep-10 10:05N 36°51' E 024°30'3 6.3
2014-Sep-10 09:33N 36°53' E 024°33'  
2014-Sep-06 09:32N 37°48' E 023°35'5 5.4
2014-Sep-06 08:33N 37°53' E 023°38'  
Track history (hours):
 
Tides and Currents Weather Stations Pressure Air Temp Water Temp Dewpoint Dewpoint Depression Visibility Wind Speed Wind Dir Waves Ship Positions

Sam Sing

Last reported at 2014-Sep-15 11:30 UTC. Time now 2014-Sep-17 03:35 UTC.
Position N 37°30' E 025°10'.

Length 13 m.

Type: Sailing vessel. MMSI: 244020860.

Date/timePositionNaut miles runAvg speedWind from/ knotsBaromVisibWave heightAir tempDewpointWater temp
2014-Sep-15 11:30N 37°30' E 025°10'6 6.1
2014-Sep-15 10:33N 37°24' E 025°10'6 5.7
2014-Sep-15 09:32N 37°19' E 025°12'6 5.7
2014-Sep-15 08:33N 37°14' E 025°15'6 6.1
2014-Sep-15 07:33N 37°08' E 025°18'5 5.3
2014-Sep-15 06:33N 37°03' E 025°17'2 0.0
2014-Sep-13 13:27N 37°02' E 025°16'3 3.4
2014-Sep-13 12:33N 36°59' E 025°15'5 5.0
2014-Sep-13 11:33N 36°55' E 025°11'6 5.6
2014-Sep-13 10:32N 36°51' E 025°06'5 4.8
2014-Sep-13 09:33N 36°46' E 025°05'6 5.5
2014-Sep-13 08:32N 36°41' E 025°01'6 0.3
2014-Sep-12 15:21N 36°37' E 024°57'  
2014-Sep-10 10:05N 36°51' E 024°30'3 6.3
2014-Sep-10 09:33N 36°53' E 024°33'  
2014-Sep-06 09:32N 37°48' E 023°35'5 5.4
2014-Sep-06 08:33N 37°53' E 023°38'  

Dump ship's entire track history